CAPE
0 0 0 0 0 0 0 0 0 0 0 0 0 0 0 0 0 0 0 0 0 0 0 0 0 0 0 0 0 0 0 0 0 0 0 0 0 0 0 0 0 0 0 0
0 0 0 0 0 0 0 0 0 0 0 0 0 0 0 0 0 0 0 0 0 0 0 0 0 0 0 0 0 0 0 0 0 0 0 0 0 0 0 0 0 0 0 0
0 0 0 0 0 0 0 0 0 0 0 0 0 0 0 0 0 0 0 0 0 0 0 0 0 0 0 0 0 0 0 0 0 0 0 0 0 0 0 0 0 0 0 0
0 0 0 0 0 0 0 0 0 0 0 0 0 0 0 0 0 0 0 0 0 0 0 0 0 0 0 0 0 0 0 0 0 0 0 0 0 0 0 0 0 0 0 0
0 0 0 0 0 0 0 0 0 0 0 0 0 0 0 0 0 0 0 0 0 0 0 0 0 0 0 0 0 0 0 0 0 0 0 0 0 0 0 0 0 0 0 0
0 0 0 0 0 0 0 0 0 0 0 0 0 0 0 0 0 0 0 0 0 0 0 0 0 0 0 0 0 0 0 0 0 0 0 0 0 0 0 0 0 0 0 0
0 0 0 0 0 0 0 0 0 0 0 0 0 0 0 0 0 0 0 0 0 0 0 0 0 0 0 0 0 0 0 0 0 0 0 0 0 0 0 0 0 0 0 0
0 0 0 0 0 0 0 0 0 0 0 0 0 0 0 0 0 0 0 0 0 0 0 0 0 0 0 0 0 0 0 0 0 0 0 0 0 0 0 0 0 0 0 0
0 0 0 0 0 0 0 0 0 0 0 0 0 0 0 0 0 0 0 0 0 0 0 0 0 0 0 0 0 0 0 0 0 0 0 0 0 0 0 0 0 0 0 0
0 0 0 0 0 0 0 0 0 0 0 0 0 0 0 0 0 0 0 0 0 0 0 0 0 0 0 0 0 0 0 0 0 0 0 0 0 0 0 0 0 0 0 0
0 0 0 0 0 0 0 0 0 0 0 0 0 0 0 0 0 0 0 0 0 0 0 0 0 0 0 0 0 0 0 0 0 0 0 0 0 0 0 0 0 0 0 0
0 0 0 0 0 0 0 0 0 0 0 0 0 0 0 0 0 0 0 0 0 0 0 0 0 0 0 0 0 0 0 0 0 0 0 0 0 0 0 0 0 0 0 0
1 0 0 0 0 0 0 0 0 0 0 0 0 0 0 0 0 0 0 0 0 0 0 0 0 0 0 0 0 0 0 0 0 0 0 0 0 0 0 0 0 0 0 0
13 2 3 1 0 0 0 0 0 0 0 0 0 0 0 0 0 0 0 0 0 0 0 0 0 0 0 0 0 0 0 0 0 0 0 0 0 0 0 0 0 0 0 0
1 0 0 0 0 1 5 0 0 0 0 0 0 0 0 0 0 0 0 0 0 0 0 0 0 0 0 0 0 0 0 0 0 0 0 0 0 0 0 0 0 0 0 0
0 0 0 0 0 0 0 0 0 0 0 0 0 0 0 0 0 0 0 0 0 0 0 0 0 0 0 0 0 0 0 0 0 0 0 0 0 0 0 0 0 0 0 0
0 0 0 0 0 0 0 0 1 0 0 0 0 0 0 0 0 0 0 0 1 0 0 0 0 0 0 0 0 0 0 0 0 0 0 0 0 0 0 0 0 0 0 0
0 0 0 0 0 0 0 0 0 0 0 0 0 0 0 0 0 0 0 0 0 0 0 0 0 0 0 0 0 0 0 0 0 0 0 0 0 0 0 0 0 0 0 0
0 0 0 0 0 0 0 0 0 0 0 0 0 0 0 0 0 0 0 0 0 0 0 0 0 0 0 0 0 0 0 0 0 0 0 0 0 0 0 0 0 0 0 0
0 0 0 0 0 0 0 0 0 0 0 0 0 0 0 0 0 0 0 0 0 0 0 0 0 0 0 0 0 0 0 0 0 0 0 0 0 0 0 0 0 0 0 0
0 0 0 0 0 0 0 0 0 0 0 0 0 0 0 0 0 0 0 0 0 0 0 0 0 0 0 0 0 0 0 0 0 0 0 0 0 0 0 0 0 0 0 0
0 0 0 0 0 0 0 0 0 0 0 0 0 0 0 0 0 0 0 0 0 0 0 0 0 0 0 0 0 0 0 0 0 0 0 0 0 0 0 0 0 0 0 0
0 0 0 0 0 0 0 0 0 0 0 0 0 0 0 0 0 0 0 0 0 0 0 0 0 0 0 0 0 0 0 0 0 0 0 0 0 0 0 0 0 0 0 0
0 0 0 0 0 0 0 0 0 0 0 0 0 1 0 0 0 0 0 0 0 0 0 0 0 0 0 0 0 0 0 0 0 0 0 0 0 0 0 0 0 0 0 0
0 0 0 0 0 0 0 0 0 0 0 0 0 0 0 0 0 0 0 0 0 0 0 0 0 0 0 0 0 0 0 0 0 0 0 0 0 0 0 0 0 0 0 0
0 0 0 0 0 0 0 0 0 0 0 0 0 0 0 0 0 0 0 0 0 0 0 0 0 0 0 0 0 0 0 0 0 0 0 0 0 0 0 0 0 0 0 0
CIN
0 0 0 0 0 0 0 0 0 0 0 0 0 0 0 0 0 0 0 0 0 0 0 0 0 0 0 0 0 0 0 0 0 0 0 0 0 0 0 0 0 0 0 0
0 0 0 0 0 0 0 0 0 0 0 0 0 0 0 0 0 0 0 0 0 0 0 0 0 0 0 0 0 0 0 0 0 0 0 0 0 0 0 0 0 0 0 0
0 0 0 0 0 0 0 0 0 0 0 0 0 0 0 0 0 0 0 0 0 0 0 0 0 0 0 0 0 0 0 0 0 0 0 0 0 0 0 0 0 0 0 0
0 0 0 0 0 0 0 0 0 0 0 0 0 0 0 0 0 0 0 0 0 0 0 0 0 0 0 0 0 0 0 0 0 0 0 0 0 0 0 0 0 0 0 0
0 0 0 0 0 0 0 0 0 0 0 0 0 0 0 0 0 0 0 0 0 0 0 0 0 0 0 0 0 0 0 0 0 0 0 0 0 0 0 0 0 0 0 0
0 0 0 0 0 0 0 0 0 0 0 0 0 0 0 0 0 0 0 0 0 0 0 0 0 0 0 0 0 0 0 0 0 0 0 0 0 0 0 0 0 0 0 0
0 0 0 0 0 0 0 0 0 0 0 0 0 0 0 0 0 0 0 0 0 0 0 0 0 0 0 0 0 0 0 0 0 0 0 0 0 0 0 0 0 0 0 0
0 0 0 0 0 0 0 0 0 0 0 0 0 0 0 0 0 0 0 0 0 0 0 0 0 0 0 0 0 0 0 0 0 0 0 0 0 0 0 0 0 0 0 0
0 0 0 0 0 0 0 0 0 0 0 0 0 0 0 0 0 0 0 0 0 0 0 0 0 0 0 0 0 0 0 0 0 0 0 0 0 0 0 0 0 0 0 0
0 0 0 0 0 0 0 0 0 0 0 0 0 0 0 0 0 0 0 0 0 0 0 0 0 0 0 0 0 0 0 0 0 0 0 0 0 0 0 0 0 0 0 0
0 0 0 0 0 0 0 0 0 0 0 0 0 0 0 0 0 0 0 0 0 0 0 0 0 0 0 0 0 0 0 0 0 0 0 0 0 0 0 0 0 0 0 0
0 0 0 0 0 0 0 0 0 0 0 0 0 0 0 0 0 0 0 0 0 0 0 0 0 0 0 0 0 0 0 0 0 0 0 0 0 0 0 0 0 0 0 0
-1 0 0 0 0 0 0 0 0 0 0 0 0 0 0 0 0 0 0 0 0 0 0 0 0 0 0 0 0 0 0 0 0 0 0 0 0 0 0 0 0 0 0 0
-9 0 -2 0 0 0 0 0 0 0 0 0 0 0 0 0 0 0 0 0 0 0 0 0 0 0 0 0 0 0 0 0 0 0 0 0 0 0 0 0 0 0 0 0
-1 -3 0 0 0 0 0 0 0 0 0 0 0 0 0 0 0 0 0 0 0 0 0 0 0 0 0 0 0 0 0 0 0 0 0 0 0 0 0 0 0 0 0 0
0 0 0 0 0 0 0 0 0 0 0 0 0 0 0 0 0 0 0 0 0 0 0 0 0 0 0 0 0 0 0 0 0 0 0 0 0 0 0 0 0 0 0 0
0 0 0 0 0 0 0 0 0 0 0 0 0 0 0 0 0 0 0 0 0 0 0 0 0 0 0 0 0 0 0 0 0 0 0 0 0 0 0 0 0 0 0 0
0 0 0 0 0 0 0 0 0 0 0 0 0 0 0 0 0 0 0 0 0 0 0 0 0 0 0 0 0 0 0 0 0 0 0 0 0 0 0 0 0 0 0 0
0 0 0 0 0 0 0 0 0 0 0 0 -1 0 0 0 0 0 0 -1 0 0 0 0 0 0 0 0 0 0 0 0 0 0 0 0 0 0 0 0 0 0 0 0
0 0 0 0 0 0 0 0 0 0 0 0 0 0 0 0 0 0 0 0 0 0 0 0 0 0 0 0 0 0 0 0 0 0 0 0 0 0 0 0 0 0 0 0
0 0 0 0 0 0 0 0 0 0 0 0 0 0 0 0 0 0 0 0 0 0 0 0 0 0 0 0 0 0 0 0 0 0 0 0 0 0 0 0 0 0 0 0
0 0 0 0 0 0 0 0 0 0 0 0 0 0 0 0 0 0 0 0 0 0 0 0 0 0 0 0 0 0 0 0 0 0 0 0 0 0 0 0 0 0 0 0
0 0 0 0 0 0 0 0 0 0 0 0 0 0 0 0 0 0 0 0 0 0 0 0 0 0 0 0 0 0 0 0 0 0 0 0 0 0 0 0 0 0 0 0
0 0 0 0 0 0 0 0 0 0 0 0 0 0 0 0 0 0 0 0 0 0 0 0 0 0 0 0 0 0 0 0 0 0 0 0 0 0 0 0 0 0 0 0
0 0 0 0 0 0 0 0 0 0 0 0 0 -1 0 0 0 0 0 -1 0 0 0 0 0 0 0 0 0 0 0 0 0 0 0 0 0 0 0 0 0 0 0 0
0 0 0 0 0 0 0 0 0 0 0 0 0 0 0 0 0 0 0 0 0 0 0 0 0 0 0 0 0 0 0 0 0 0 0 0 0 0 0 0 0 0 0 0
Wind_Speed
3 4 3 4 1 2 6 4 2 2 2 3 7 8 11 6 6 8 8 8 10 11 8 9 9 8 8 6 7 6 6 3 3 3 2 2 2 2 3 4 5 5 5 6
6 2 2 1 2 2 2 2 4 2 0 1 4 12 12 9 9 14 15 13 12 8 10 10 10 9 9 8 7 6 5 4 3 2 2 1 1 1 1 3 4 5 6 6
4 1 0 1 2 1 2 3 1 2 4 1 6 10 7 3 5 5 12 11 12 17 16 13 10 10 7 9 8 7 6 5 3 3 2 2 1 1 2 3 3 5 6 6
2 2 0 1 2 1 2 1 2 3 4 4 3 8 7 3 5 3 4 7 10 13 13 14 12 8 9 7 7 7 6 5 4 3 3 2 1 1 1 2 3 4 5 5
1 2 2 0 2 1 2 3 3 3 4 4 3 2 9 3 5 4 6 8 9 10 15 15 15 13 6 7 7 6 6 5 5 4 3 2 1 1 1 2 4 4 3 4
3 2 3 1 2 3 2 4 6 4 4 3 4 5 7 2 2 7 4 5 7 9 13 13 9 9 5 3 3 5 4 4 3 3 3 2 0 2 3 3 4 3 4 3
2 2 2 4 2 2 6 5 4 6 4 6 3 3 10 7 5 5 11 8 6 7 9 12 13 10 7 7 6 3 5 3 3 2 2 1 1 2 3 4 4 6 5 4
1 4 1 5 2 3 1 6 6 6 2 4 4 6 6 6 7 6 4 2 7 6 7 9 10 9 9 8 7 5 5 4 3 3 3 1 2 1 2 3 3 4 4 5
1 3 2 2 2 2 2 1 3 5 2 3 2 8 7 5 6 8 7 8 7 8 8 9 8 8 7 7 9 9 7 4 5 6 3 3 2 3 3 4 4 4 5 6
2 4 2 3 1 4 2 2 4 2 2 4 6 5 4 8 9 7 7 6 6 5 4 4 5 6 5 6 7 8 7 8 6 5 4 3 3 3 4 3 5 5 6 7
2 3 4 1 3 5 2 2 3 2 2 5 1 3 3 6 4 4 5 3 2 3 3 4 5 4 5 4 5 5 6 6 5 5 4 3 3 3 4 4 4 5 7 7
3 2 4 7 1 1 2 2 3 3 4 1 3 4 1 6 6 2 4 3 3 5 5 5 5 5 5 5 5 7 6 6 6 4 4 4 3 3 4 5 6 6 7 8
3 3 2 6 2 1 3 3 1 1 0 3 2 3 4 7 9 6 4 6 7 5 4 3 3 3 4 5 5 5 5 5 4 4 4 3 4 3 5 5 6 7 7 8
4 4 6 3 1 2 1 2 2 1 2 2 3 4 13 17 12 11 11 7 5 7 7 4 4 6 5 5 6 6 6 6 5 5 4 4 5 4 4 5 6 6 7 8
3 3 2 5 5 5 7 8 4 3 3 3 1 3 6 12 15 8 7 7 7 6 5 4 4 5 5 5 6 5 5 6 5 5 5 6 5 3 4 6 5 6 7 8
5 3 3 2 5 2 9 12 10 7 2 4 4 0 3 8 8 8 10 7 9 4 7 5 5 5 5 5 6 6 6 7 6 6 7 5 4 3 5 5 6 6 7 6
3 2 4 3 5 3 7 9 10 8 6 2 2 3 6 12 13 14 15 13 4 5 5 6 6 6 6 6 5 7 7 5 7 6 5 6 4 4 5 4 5 7 6 4
4 2 3 3 4 3 6 5 7 9 1 3 1 4 6 8 11 17 11 8 7 6 5 7 6 6 6 5 4 2 5 7 7 6 6 5 4 4 3 3 5 5 4 5
5 3 3 4 1 1 5 7 7 3 5 4 6 11 11 12 9 6 6 5 10 11 10 8 8 6 6 7 6 5 5 6 6 7 7 6 5 4 3 5 6 5 3 4
6 5 5 4 4 4 5 5 8 4 5 5 8 8 11 10 10 7 10 13 15 16 14 12 9 6 6 7 5 6 7 7 9 8 7 6 6 6 5 5 5 4 3 5
5 5 3 3 1 6 5 7 6 5 7 11 10 11 11 8 8 16 17 16 16 15 15 13 8 8 8 6 5 7 7 9 10 6 6 6 6 6 6 4 3 3 4 6
4 2 2 1 4 5 4 5 2 7 10 13 12 13 13 12 13 13 17 15 16 16 15 13 11 10 9 6 5 8 8 8 7 7 7 6 6 5 4 4 3 3 3 5
2 7 5 8 6 5 3 7 7 5 8 9 13 16 14 12 11 12 14 14 14 15 13 12 11 10 8 6 6 8 8 7 7 7 7 6 5 4 4 3 3 3 4 3
4 3 4 5 6 7 8 6 3 2 7 12 15 19 15 12 8 12 12 10 12 13 13 11 9 9 9 5 6 8 6 7 7 7 6 6 5 4 4 3 2 1 3 4
5 4 5 6 8 7 7 3 4 11 9 14 15 17 13 9 7 10 12 10 12 13 13 9 8 7 7 4 6 5 5 7 8 7 6 5 5 4 3 3 3 2 4 3
5 6 4 5 3 4 7 7 6 5 9 12 13 15 14 12 13 10 11 10 11 13 10 6 5 5 6 4 6 5 5 8 8 7 5 5 4 3 3 1 2 4 5 7
Wind_Direction
16 69 212 213 164 154 114 102 172 262 160 203 234 258 268 236 216 216 204 195 186 183 167 157 153 143 132 131 133 135 124 91 69 47 37 32 27 359 27 19 17 19 8 4
22 215 150 153 108 145 139 125 238 304 194 146 333 276 253 211 209 205 204 201 186 166 160 158 156 155 161 151 145 140 129 117 91 81 64 59 10 354 6 14 7 12 1 358
164 142 9 127 42 212 133 155 337 247 325 333 330 282 256 261 227 210 212 198 192 179 169 167 164 168 149 156 158 152 147 131 102 85 70 23 10 8 15 5 356 349 345 346
57 342 89 107 112 86 251 51 87 46 61 241 64 283 305 333 319 279 241 209 193 179 171 165 166 163 173 171 156 151 150 144 139 120 97 91 80 346 22 313 314 327 334 332
290 6 357 149 48 348 162 52 62 85 90 51 305 75 273 11 351 319 300 240 200 177 167 166 172 178 167 158 162 154 149 145 139 135 124 124 129 233 285 295 321 317 316 321
92 73 46 35 57 34 131 82 39 48 77 9 248 138 285 323 285 299 289 290 209 172 163 166 154 134 122 103 126 146 142 155 134 133 138 139 139 327 338 336 331 331 324 331
139 68 29 21 107 48 62 59 343 351 18 222 332 58 248 286 261 263 296 294 195 165 149 144 146 156 151 169 175 173 164 188 172 158 176 168 284 312 309 319 319 323 328 333
136 314 56 342 108 178 117 151 162 219 205 277 61 235 268 241 294 313 352 106 105 107 130 146 153 155 165 178 181 180 179 200 192 186 215 224 256 276 279 280 290 291 294 298
94 271 116 24 51 51 210 143 200 105 45 47 265 295 321 323 13 16 38 73 93 114 126 133 140 160 171 179 192 191 188 197 195 201 187 223 249 265 271 283 275 276 282 293
309 329 309 122 137 52 121 164 72 7 169 268 298 277 258 350 354 15 31 38 33 45 81 125 160 174 184 192 189 182 188 192 185 186 189 202 227 266 270 279 281 284 287 289
128 98 298 68 194 171 130 300 28 117 156 168 258 303 230 288 311 315 36 40 346 311 266 219 212 209 197 182 178 182 177 178 184 185 181 193 235 261 283 276 280 287 292 288
309 196 247 236 258 97 87 236 211 188 226 122 145 281 319 297 300 139 39 346 242 203 213 227 224 214 213 210 190 196 187 192 198 182 174 203 223 261 274 280 288 295 287 287
321 231 244 322 10 191 228 185 186 151 124 191 145 252 355 35 9 353 359 316 310 302 293 281 297 260 237 229 212 197 194 202 177 173 186 210 244 253 265 272 285 290 288 283
1 318 327 328 343 76 291 247 213 304 113 189 240 315 359 351 340 315 306 326 318 309 297 279 281 260 251 237 218 204 204 197 184 183 184 218 241 239 251 274 280 280 281 275
22 270 339 345 346 4 39 46 27 223 200 217 234 81 339 337 335 315 282 314 333 329 331 318 301 289 266 252 236 212 205 185 175 184 190 224 235 237 266 274 274 276 274 274
343 285 325 320 348 94 68 25 13 16 42 88 48 193 221 294 305 324 324 315 306 350 334 322 314 310 301 261 234 215 207 197 165 189 209 214 220 237 252 270 275 283 282 276
36 39 11 312 349 138 36 351 0 345 325 138 85 251 304 326 333 331 313 314 293 280 283 310 300 300 306 293 240 209 201 153 182 193 205 209 209 236 256 270 294 286 288 281
338 58 106 260 14 55 177 33 326 321 192 75 66 338 317 305 306 301 296 276 270 291 306 305 292 289 293 293 267 170 159 177 187 201 203 206 205 225 255 279 274 277 264 274
45 90 16 85 111 135 32 346 332 7 275 100 355 338 328 322 305 275 32 355 307 285 285 273 265 264 266 280 265 200 182 175 182 210 209 206 192 211 240 271 275 274 270 280
25 83 98 23 100 203 212 265 286 307 273 18 351 328 320 330 319 299 323 314 305 295 286 280 271 257 255 264 241 197 199 187 204 210 208 198 190 201 222 248 268 254 239 261
338 357 95 344 284 297 237 288 310 72 252 320 323 315 306 286 266 291 301 294 297 296 288 279 261 248 254 250 225 223 201 204 214 186 187 184 187 199 212 235 224 261 301 309
183 115 276 77 43 336 200 3 71 231 287 289 285 289 276 272 286 291 293 298 301 298 295 282 273 265 257 236 213 231 219 216 193 179 177 179 185 205 191 203 270 297 317 322
346 181 197 168 221 238 261 216 238 225 259 283 290 288 270 271 280 301 297 293 298 296 293 283 274 268 260 233 211 225 233 188 185 173 175 176 177 195 210 210 269 321 322 306
277 180 202 51 279 241 268 287 272 297 272 305 303 295 278 269 274 297 298 288 306 304 293 281 270 263 261 236 237 227 222 180 173 181 168 168 169 194 227 261 232 230 291 305
206 141 201 260 284 290 280 280 288 319 316 309 323 317 283 280 301 289 306 302 306 296 295 278 267 260 259 260 259 245 213 168 175 173 160 165 165 170 215 244 242 238 256 270
184 205 180 234 246 263 290 304 322 316 310 318 316 328 322 311 302 296 297 303 294 294 303 296 286 279 277 264 264 253 202 171 161 162 165 162 151 176 188 213 300 341 348 355